User: anonymous   Login
Location: Edinburgh
(55.9500°N, 3.1600°W)
Time: 20:34:32
(UTC+00:00)
Language:

DX 1 - Orbit

View from above orbital plane
View from above orbital plane
View from above satellite
View from above satellite

Ground track
Ground track

The orbit data is extracted from the following two-line orbital elements,

1 40071U 14037C   19324.51308280  .00000078  00000-0  17481-4 0  9993
2 40071  98.4436 126.4887 0009605  89.2980 270.9338 14.81309656290174
Epoch (UTC): 20 November 2019 12:18:50
Eccentricity: 0.0009605
inclination: 98.4436°
perigee height: 618 km
apogee height: 632 km
right ascension of ascending node: 126.4887°
argument of perigee: 89.2980°
revolutions per day: 14.81309656
mean anomaly at epoch: 270.9338°
orbit number at epoch: 29017

The dashed part of the orbit path shows where the satellite is in the earth's shadow,  

DLR